-1 Query Result

LUMCON's Bayouside Classroom: Query Results


Try Another Query    Instructions for saving Query Results    View Delimited Text File for this Query   
UserNameUserIDGroupNumberLocationLocationIDSampleDateSampleTimeBottomTempTopTempBottomSalinityTopSalinityBottomDOTopDOBottompHToppHBottomTurbidityTopTurbidityDepth
Lumcon NA Vermilionville 113 9/7/2013 10:05 30 NA NA 5.4 NA NA  163.9 NA 
Lumcon NA Vermilionville 113 9/7/2013 10:15 NA 29 NA NA NA  23.6 NA 
ccoussen 168 OCHS-FA13 Vermilionville 113 12/3/2013  NA 12 NA TLTD NA 7.4 NA 7.7  10.7 NA 
ccoussen 168 OCHS-FA13 Vermilionville 113 12/3/2013  NA 13 NA NA NA 7.5  9.5 NA 
ccoussen 168 OCHS-FA13 Vermilionville 113 12/3/2013  NA 11 NA NA 3.7 NA 7.3  12 NA 
ccoussen 168 OCHS-FA13 Vermilionville 113 12/3/2013  NA 12 NA NA 7.2 NA 7.4  9.6 NA 
ccoussen 168 OCHS-FA13 Vermilionville 113 12/3/2013  NA 12 NA 12.75 NA NA 7.7  12.75 NA 
ccoussen 168 OCHS-FA13 Vermilionville 113 12/3/2013  NA 10 NA TLTD NA 5.2 NA 7.4  5.6 NA 
ccoussen 168 OCHS-FA13 Vermilionville 113 12/3/2013  NA 13.5 NA TLTD NA NA 8.5  12 NA 
ccoussen 168 OCHS-FA13 Vermilionville 113 12/3/2013  NA 12 NA TLTD NA 7.6 NA  N/A NA 
ccoussen 168 OCHS-FA13 Vermilionville 113 12/3/2013  NA 13 NA NA 7.2 NA 7.3  5.6 NA 
ccoussen 168 OCHS-FA13 Vermilionville 113 12/3/2013  NA 14 NA TLTD NA 7.8 NA 7.8  13 NA 
ccoussen 168 OCHS-FA13 Vermilionville 113 12/3/2013  NA 14 NA TLTD NA 5.2 NA 7.3  12.2 NA 
ccoussen 168 OCHS-FA13 Vermilionville 113 12/3/2013  NA 13 NA TLTD NA 7.4 NA 7.7  NA 
ccoussen 168 OCHS-FA13 Vermilionville 113 12/3/2013  NA 10.6 NA TLTD NA 6.2 NA 8.4  10.23 NA 
ccoussen 168 OCHS-FA13 Vermilionville 113 12/3/2013  NA 12 NA NA 7.2 NA 8.1  11.8 NA 
ccoussen 168 OCHS-FA13 Vermilionville 113 12/3/2013  NA 12 NA NA NA NA 7.8  13 NA 
ccoussen 168 OCHS-FA13 Vermilionville 113 12/3/2013  NA 12 NA TLTD NA 7.2 NA 8.4  14.5 NA 
ccoussen 168 OCHS-FA13 Vermilionville 113 12/3/2013  NA 41 NA NA 7.2 NA 7.2  10 NA 
ccoussen 168 OCHS-FA13 Vermilionville 113 12/3/2013  NA 11 NA TLTD NA NA 9.4  11.6 NA 
ccoussen 168 OCHS-FA13 Vermilionville 113 12/3/2013  NA 11 NA TLTD NA NA 7.7  25.2 NA 
ccoussen 168 OCHS-FA13 Vermilionville 113 12/3/2013  NA 11 NA TLTD NA NA 8.2  11.6 NA 
ccoussen 168 OCHS-FA13 Vermilionville 113 12/3/2013  NA 13 NA NA NA 8.2  9.5 NA 
ccoussen 168 OCHS-FA13 Vermilionville 113 12/3/2013  NA 11 NA TLTD NA 6.8 NA  10.8 NA 
ccoussen 168 OCHS-FA13 Vermilionville 113 12/3/2013  NA 11.5 NA TLTD NA NA  11.9 NA 
ccoussen 168 OCHS-FA13 Vermilionville 113 12/3/2013  NA NA NA 7.4 NA 8.2  11.1 NA 
ccoussen 168 OCHS-FA13 Vermilionville 113 12/3/2013  NA 11 NA TLTD NA NA 7.7  25.2 NA 
ccoussen 168 DTMA-SP14 Vermilionville 113 2/5/2014  NA NA TLTD NA 10 NA 8.1  NA NA 
ccoussen 168 DTMA-SP14 Vermilionville 113 2/6/2014  NA NA 1.02 NA NA 8.3  NA 
ccoussen 168 DTMA-SP14 Vermilionville 113 2/10/2014  NA NA NA NA 10 NA 8.6  10 NA 
ccoussen 168 DTMA-SP14 Vermilionville 113 2/10/2014  NA NA NA NA  10.24 NA 
ccoussen 168 OCHS-SP14 Vermilionville 113 4/16/2014  NA 18 NA TLTD NA 4.2 NA 8.4  10.9 NA 
ccoussen 168 OCHS-SP14 Vermilionville 113 4/16/2014  NA 19 NA TLTD NA 3.2 NA 8.6  23.2 NA 
ccoussen 168 OCHS-SP14 Vermilionville 113 4/16/2014  NA 20 NA 80.1 NA NA 8.4  10.8 NA 
ccoussen 168 OCHS-SP14 Vermilionville 113 4/16/2014  NA 15 NA TLTD NA NA 7.5  10.7 NA 
ccoussen 168 OCHS-SP14 Vermilionville 113 4/16/2014  NA 19 NA 85.3 NA 4.3 NA 7.9  10.12 NA 
ccoussen 168 OCHS-SP14 Vermilionville 113 4/16/2014  NA 16 NA 80.5 NA NA 7.5  10.4 NA 
ccoussen 168 OCHS-SP14 Vermilionville 113 4/16/2014  NA 18 NA 80.5 NA 4.2 NA 8.5  10.3 NA 
ccoussen 168 OCHS-SP14 Vermilionville 113 4/16/2014  NA 18 NA 86.5 NA 4.9 NA 7.5  NA 
ccoussen 168 OCHS-SP14 Vermilionville 113 4/16/2014  NA 19 NA 490 NA NA 8.8  13.9 NA 
ccoussen 168 OCHS-SP14 Vermilionville 113 4/16/2014  NA 18 NA 85.1 NA 5.3 NA 7.8  12.7 NA 
ccoussen 168 OCHS-SP14 Vermilionville 113 4/16/2014  NA 17 NA 82.7 NA 3.4 NA 8.4  5.8 NA 
ccoussen 168 OCHS-SP14 Vermilionville 113 4/16/2014  NA 18 NA 472 NA 5.2 NA 9.1  11.2 NA 
ccoussen 168 OCHS-SP14 Vermilionville 113 4/16/2014  NA 16 NA 40 NA 6.3 NA  19.4 NA 
ccoussen 168 OCHS-SP14 Vermilionville 113 4/16/2014  NA 19 NA 4.37 NA 6.9 NA 8.3  11.7 NA 
ccoussen 168 OCHS-SP14 Vermilionville 113 4/16/2014  NA 16 NA 459 NA 5.4 NA  11.1 NA 
ccoussen 168 OCHS-SP14 Vermilionville 113 4/16/2014  NA 17 NA 4.16 NA 5.1 NA 8.5  11.7 NA 
ccoussen 168 OCHS-SP14 Vermilionville 113 4/16/2014  NA 18 NA 470 NA 21 NA 9.2  12.1 NA 
ccoussen 168 OCHS-SP14 Vermilionville 113 4/16/2014  NA 18 NA 517 NA 3.1 NA 8.6  44.8 NA 
ccoussen 168 OCHS-SP14 Vermilionville 113 4/16/2014  NA 18 NA 478 NA NA 7.7  10.45 NA 
ccoussen 168 OCHS-SP14 Vermilionville 113 4/16/2014  NA 18 NA 502 NA 3.3 NA 9.1  15.5 NA 
ccoussen 168 OCHS-SP14 Vermilionville 113 4/16/2014  NA 17 NA 486 NA NA 7.7  10.3 NA 
ccoussen 168 OCHS-SP14 Vermilionville 113 4/16/2014  NA 18 NA 484 NA NA 9.4  11.4 NA 
ccoussen 168 OCHS-SP14 Vermilionville 113 4/16/2014  NA 18 NA 456 NA 6.5 NA 9.2  15.4 NA 
Lumcon NA Vermilionville 113 6/16/2014 1200 NA 27.7 NA NA 0.4 NA 7.4  42.6 NA 
Lumcon NA Vermilionville 113 6/26/2014 1300 NA 29 NA NA 2.8 NA 7.6  16.8 NA 
Lumcon NA Vermilionville 113 6/26/2014 1345 NA 29 NA NA 2.4 NA 7.6  16.4 NA 
ccoussen 168 STM-FA14 Vermilionville 113 8/16/2014  NA 29 NA NA 3.1 NA 10  15 NA 
ccoussen 168 STM-FA14 Vermilionville 113 8/16/2014  NA 30 NA NA 2.5 NA 9.4  NA NA 
ccoussen 168 STM-FA14 Vermilionville 113 8/16/2014  NA 27 NA .96 NA 8.2 NA .16  14 NA 
ccoussen 168 STM-FA14 Vermilionville 113 8/16/2014  NA 29 NA NA 3.1 NA 8.3  15 NA 
ccoussen 168 STM-FA14 Vermilionville 113 8/16/2014  NA 28 NA NA 1,5 NA 9.8  12 NA 
ccoussen 168 STM-FA14 Vermilionville 113 8/16/2014  NA 27 NA NA 23 NA 7.8  15 NA 
ccoussen 168 STM-FA14 Vermilionville 113 8/16/2014  NA 28 NA NA 4.2 NA 9.8  12 NA 
ccoussen 168 STM-FA14 Vermilionville 113 8/16/2014  NA 28 NA NA NA 10  20 NA 
ccoussen 168 STM-FA14 Vermilionville 113 8/16/2014  NA 29 NA NA NA  12 NA 
ccoussen 168 STM-FA14 Vermilionville 113 8/16/2014  NA 29 NA NA 6.3 NA  12 NA 
ccoussen 168 STM-FA14 Vermilionville 113 9/16/2014  NA 29 NA NA NA 2.2 NA NA  NA NA 
ccoussen 168 STM-FA14 Vermilionville 113 9/16/2014  NA 28 NA NA NA NA NA  NA NA 
ccoussen 168 OCHS-FA14 Vermilionville 113 9/30/2014  NA 25 NA TLTD NA 16 NA 8.3  14 NA 
ccoussen 168 OCHS-FA14 Vermilionville 113 9/30/2014  NA 27 NA NA NA NA NA  17.3 NA 
ccoussen 168 OCHS-FA14 Vermilionville 113 9/30/2014  NA 25 NA NA NA 10 NA 7.5  10 NA 
ccoussen 168 OCHS-FA14 Vermilionville 113 9/30/2014  NA 26 NA NA 10 NA 3.1  NA NA 
ccoussen 168 OCHS-FA14 Vermilionville 113 9/30/2014  NA 26 NA TLTD NA 4.6 NA 7.8  17.6 NA 
ccoussen 168 OCHS-FA14 Vermilionville 113 9/30/2014  NA 26 NA NA 4.2 NA 8.1  20.6 NA 
ccoussen 168 OCHS-FA14 Vermilionville 113 9/30/2014  NA 20.6 NA NA 2.4 NA 7.7  19 NA 
ccoussen 168 OCHS-FA14 Vermilionville 113 9/30/2014  NA 26 NA NA 4.6 NA 7.9  NA NA 
ccoussen 168 OCHS-FA14 Vermilionville 113 9/30/2014  NA 26.5 NA NA 4.6 NA 7.8  17.6 NA 
ccoussen 168 OCHS-FA14 Vermilionville 113 9/30/2014  NA 28.2 NA NA 4.425 NA 8.1  NA NA 
ccoussen 168 OCHS-FA14 Vermilionville 113 9/30/2014  NA 27 NA NA 3.8 NA 8.4  NA NA 
ccoussen 168 OCHS-FA14 Vermilionville 113 9/30/2014  NA 26 NA TLTD NA NA NA  NA NA 
ccoussen 168 OCHS-FA14 Vermilionville 113 9/30/2014  NA 27 NA TLTD NA 5.1 NA 7.8  NA NA 
ccoussen 168 LMS-SP15 Vermilionville 113 3/30/2015  NA 21 NA NA NA  15 NA 
ccoussen 168 LMS-SP15 Vermilionville 113 3/30/2015  NA 21 NA NA 6.6 NA  15 NA 
ccoussen 168 LMS-SP15 Vermilionville 113 3/30/2015  NA 20 NA NA 6.6 NA 8.6  15.2 NA 
ccoussen 168 LMS-SP15 Vermilionville 113 3/30/2015  NA 18.33 NA NA NA NA  15.1 NA 
ccoussen 168 LMS-SP15 Vermilionville 113 3/30/2015  NA 20 NA NA NA 7.5  13 NA 
ccoussen 168 LMS-SP15 Vermilionville 113 3/30/2015  NA 20 NA NA 4.2 NA 7.7  13 NA